Location: Lussas
(44.6119°N, 4.4726°E)
Time: 18:34:18
(UTC+00:00)

Cosmos 1461 - Visible Passes

Search period start: 16 April 2021 00:00
Search period end: 26 April 2021 00:00
Orbit: 505 x 659 km, 65.0° (Epoch: 15 April)

Date Brightness Start Highest point End Pass type
(mag) Time Alt. Az. Time Alt. Az. Time Alt. Az.
19 Apr 5.8 03:37:37 10° SE 03:40:22 15° ESE 03:43:05 10° ENE visible
20 Apr 5.3 03:41:46 10° SSE 03:45:31 24° ESE 03:49:17 10° ENE visible
21 Apr 4.6 03:46:26 10° S 03:50:45 36° ESE 03:55:04 10° NE visible
22 Apr 3.8 03:51:25 10° SSW 03:56:02 57° ESE 04:00:39 10° NE visible
23 Apr 5.8 02:21:25 10° SE 02:23:00 12° ESE 02:24:35 10° E visible
23 Apr 3.2 03:56:38 10° SSW 04:01:22 88° SE 04:06:06 10° NE visible
24 Apr 5.4 02:25:20 12° SSE 02:28:07 18° ESE 02:31:21 10° ENE visible
24 Apr 3.3 04:02:06 10° SW 04:06:47 62° NW 04:11:26 10° NNE visible
25 Apr 4.7 02:30:54 18° SSE 02:33:19 28° ESE 02:37:19 10° NE visible
